www.pogodaiklimat.ru

Погода и климат >> Архив погоды >> Ирак >> Basrah


ПОГОДА в Basrah

  • Прогноз погоды в Basrah
  • Монитор погоды в Basrah
  • Климат города

АРХИВ ПОГОДЫ в Basrah

Время (UTC), дата Ветер
(напр.,м/с)
 
Видим.   Явления Облачность Т
(С)
Тd
(С)
f
(%)
Тe
(С)
Тes
(С)
Комфортность P
(гПа)
Po
(гПа)
Тmin
(С)
Tmax
(С)
R
(мм)
R24
(мм)
S
(см)
12 17.11 СЗ 2 10 км ясно +27.2 +7.3 28 +27 +30 жарко 1016.6 1017.0
18 17.11 штиль 0 10 км ясно +16.5 +8.7 60 +16 +16 1018.4 1018.0 +28.0
21 17.11 штиль 0 10 км ясно +14.5 +7.9 65 +14 +14 1018.7 1019.0
00 18.11 штиль 0 10 км ясно +12.8 +7.9 72 +12 +12 1018.8 1019.0
03 18.11 штиль 0 10 км 3/0
[Ci sp]
+11.8 +8.1 78 +11 +11 1019.2 1019.0
06 18.11 штиль 0 10 км ясно +18.4 +6.9 47 +19 +24 1021.3 1021.0 +11.0
09 18.11 штиль 0 10 км ясно +25.8 +10.6 38 +27 +38 жарко 1020.0 1020.0
12 18.11 штиль 0 10 км ясно +26.6 +10.2 36 +27 +31 жарко 1018.4 1018.0
15 18.11 штиль 0 10 км 6/0
[Cs]
+19.8 +9.7 52 +21 +21 комфорт 1018.9 1019.0
18 18.11 штиль 0 10 км 8/0
[Cs]
+16.2 +9.7 65 +16 +16 1019.7 1020.0 +27.8
21 18.11 штиль 0 10 км ясно +15.4 +12.1 81 +15 +15 1019.7 1020.0
03 19.11 штиль 0 10 км 3/0
[Ac trans]
+14.2 +11.0 81 +14 +14 1019.7 1020.0
06 19.11 штиль 0 10 км мгла 5/0
[Ci sp]
+19.2 +13.2 68 +20 +25 1021.1 1021.0 +13.8
09 19.11 В 2 10 км 9/0
[Ac As]
+24.6 +12.5 47 +26 +30 жарко 1019.9 1020.0
12 19.11 ЮВ 4 10 км 8/0
[Cs]
+27.0 +8.8 32 +27 +29 жарко 1017.8 1018.0
15 19.11 ЮВ 4 10 км 4/0
[Ac trans]
+23.2 +12.8 52 +26 +26 жарко 1018.6 1019.0
18 19.11 ЮВ 4 10 км ясно +20.2 +13.2 64 +22 +22 комфорт 1019.0 1019.0 +28.0
21 19.11 В 3 10 км ясно +20.4 +15.3 73 +23 +23 комфорт 1018.3 1018.0
00 20.11 В 3 10 км ясно +19.4 +15.7 79 +21 +21 комфорт 1018.0 1018.0
06 20.11 В 3 10 км 5/0
[Cs]
+22.8 +16.2 66 +27 +30 душно 1019.6 1020.0 +18.4
12 20.11 Ю 5 10 км 8/0
[As op]
+27.4 +14.1 44 +30 +30 жарко 1015.8 1016.0
15 20.11 ЮВ 6 10 км 6/4 1200 м
[Sc Ac trans]
+24.4 +14.3 53 +27 +27 жарко 1015.8 1016.0
06 21.11 ЮЗ 5 10 км 10/5 1200 м
[Sc As op]
+23.6 +13.1 52 +26 +26 жарко 1014.2 1014.0 +22.2
09 21.11 В 2 10 км 10/5 1050 м
[Cu Sc As op]
+24.0 +12.1 47 +26 +27 жарко 1013.4 1013.0
12 21.11 ЮВ 3 10 км 10/5 1200 м
[Sc As op Ci fib]
+20.8 +16.8 78 +25 +25 комфорт 1012.9 1013.0
15 21.11 ЮВ 5 10 км 10/5 1200 м
[Sc As op]
+19.4 +15.7 79 +21 +21 комфорт 1012.3 1012.0
18 21.11 ЮВ 3 10 км 8/5 1200 м
[Sc Ac trans]
+18.6 +15.5 82 +20 +20 1012.7 1013.0 +21.8 0.0
21 21.11 ЮВ 3 10 км ясно +18.6 +15.5 82 +20 +20 1011.8 1012.0
03 22.11 Ю 2 10 км 6/4 1200 м
[Sc Ac trans]
+18.6 +14.1 75 +20 +20 1011.3 1011.0
06 22.11 Ю 2 10 км 6/6 1200 м
[Sc]
+22.2 +14.4 61 +25 +27 комфорт 1012.2 1012.0 +17.0
09 22.11 СЗ 4 10 км 4/4 900 м
[Cu med, cong]
+25.4 +12.7 45 +27 +31 жарко 1010.8 1011.0
12 22.11 СЗ 4 10 км 6/3 900 м
[Cu hum Ac trans]
+26.0 +12.2 42 +27 +28 жарко 1010.4 1010.0
15 22.11 СЗ 3 10 км 5/0
[Ac trans]
+23.0 +12.5 52 +26 +26 жарко 1012.0 1012.0
18 22.11 СЗ 3 10 км 5/0
[Ac trans]
+20.2 +13.6 66 +23 +23 комфорт 1013.7 1014.0 +27.8
21 22.11 С 3 10 км ясно +17.4 +7.8 53 +17 +17 1014.2 1014.0
03 23.11 СЗ 2 10 км ясно +11.6 +6.1 69 +11 +11 1015.8 1016.0
06 23.11 З 3 10 км ясно +15.4 +5.9 53 +15 +18 1017.2 1017.0 +11.0
09 23.11 СЗ 2 10 км ясно +22.0 +5.5 34 +22 +31 комфорт 1016.7 1017.0
12 23.11 СЗ 2 10 км 3/3 1050 м
[Cu hum]
+22.8 +4.8 31 +23 +25 комфорт 1015.7 1016.0
15 23.11 штиль 0 10 км ясно +18.0 +6.9 48 +18 +18 1016.5 1017.0
18 23.11 штиль 0 10 км ясно +14.2 +9.1 71 +14 +14 1017.1 1017.0 +23.0
00 24.11 штиль 0 10 км 4/0
[Ac trans]
+12.0 +6.8 70 +12 +12 1018.3 1018.0
03 24.11 штиль 0 10 км 1/0
[Ci fib]
+10.8 +5.1 68 +10 +10 1019.2 1019.0
06 24.11 штиль 0 10 км 4/0
[Ci fib]
+17.2 +6.8 50 +17 +22 1020.3 1020.0 +10.4

 

Местоположение метеостанции Basrah (Ирак): широта 30.57 долгота 47.78 высота над уровнем моря 2 м.

В архиве по умолчанию представлена погода в Basrah за последнюю неделю. Архивные данные за месяц целиком и за предыдущие месяцы, начиная с января 2011 года, Вы можете получить, выбрав интересующий диапазон дат из раскрывающегося списка и нажав кнопку "Ввод!".

Внимание! Время в таблицах - всемирное. Для получения местного времени необходимо прибавить поправку, которая в Basrah равна 3 ч.

Смотрите также архив погоды в соседних городах и на ближайших метеорологических станциях:

Погода в Basrah Airport (Ирак) (6 км)
Погода в Abadan (Иран) (50 км)
Погода в Abdaly (Кувейт) (55 км)
Погода в Sabriyah (Кувейт) (91 км)
Погода в Mitribah (Кувейт) (92 км)
Погода в Fao (Ирак) (95 км)
Погода в Bubiyan (Кувейт) (106 км)
Погода в Jal Aliyah (Кувейт) (108 км)
Погода в Ahwaz (Иран) (120 км)
Погода в Failaka Island (Кувейт) (131 км)

Пояснения к столбцам:

Ветер - указаны скорость ветра в м/с - средняя за 10 мин, порывы в срок и между сроками (в фигурных скобках) и направление, откуда дует ветер: С - северный, СВ - северо-восточный, В - восточный, ЮВ - юго-восточный, Ю - южный, ЮЗ - юго-западный, З - западный, СЗ - северо-западный.
Видимость - горизонтальная дальность видимости в метрах или километрах. При видимости от 1 до 10 км при отсутствии осадков обычно наблюдается дымка, при ухудшении видимости до 1 км и менее - туман. В сухую погоду видимость может ухудшаться дымом, пылью или мглою.
Явления - указаны атмосферные явления, наблюдавшиеся в срок или в последний час перед сроком; фигурными скобками обозначены явления, наблюдавшиеся между сроками (за 1-3 часа до срока); квадратными скобками обозначены град или гололедные отложения с указанием их диаметра в мм.
Облачность - указаны через наклонную черту общая и нижняя облачность в баллах и высота нижней границы облаков в метрах; квадратными скобками обозначены формы облаков: Ci - перистые, Cs - перисто-слоистые, Cc - перисто-кучевые, Ac - высококучевые, As - высокослоистые, Sc - слоисто-кучевые, Ns - слоисто-дождевые, Cu - кучевые, Cb - кучево-дождевые. Подробнее классификацию облаков см. в Атласе облаков (PDF).
T - Температура воздуха - температура, измеренная на высоте 2 м над землей.
Td - Температура точки росы - температура, при понижении до которой содержащийся в воздухе водяной пар достигнет насыщения.
f - Относительная влажность воздуха - влажноcть воздуха, измеренная на высоте 2 м над землей.
Te - Эффективная температура - температура, которую ощущает одетый по сезону человек в тени. Характеристика душности погоды. При расчете учитывается влияние влажности воздуха и скорости ветра на теплоощущения человека.
Tes - Эффективная температура на солнце - температура, которую ощущает человек, с поправкой на солнечный нагрев. Характеристика знойности погоды. Зависит от высоты солнца над горизонтом, облачности и скорости ветра. Ночью, в пасмурную погоду, а также при ветре 12 м/с и более поправка равна нулю.
P - Атмосферное давление - приведенное к уровню моря атмосферное давление.
Po - Атмосферное давление - измеренное на уровне метеостанции атмосферное давление.
Tmin - Минимальная температура - минимум температуры воздуха на высоте 2 м над землей.
Tmax - Максимальная температура - максимум температуры воздуха на высоте 2 м над землей.
R - Количество осадков - Количество выпавших осадков за период времени, мм. При наведении курсора мыши на число - период времени, за который выпало указанное количество осадков.
R24 - Количество осадков - Количество выпавших осадков за 24 часа, мм.
S - Снежный покров - Высота снежного покрова, см. При наведении курсора мыши на число - состояние снежного покрова и степень покрытия местности в баллах.